| time (UTC) | temp F | wind direction | speed knots | gust knots | rain 1hr in | rain 24hr in | rain mn in | humidity % | barometer mb |
| 20260505130204 | 66 | 166 | 0.0 | 0.0 | 0.00 | 0.01 | 0.01 | 92 | 1050.8 |
| 20260505123706 | 63 | 85 | 0.0 | 0.0 | 0.00 | 0.01 | 0.01 | 96 | 1059.6 |
| 20260505123205 | 63 | 85 | 0.0 | 0.0 | 0.00 | 0.01 | 0.01 | 97 | 1059.6 |
| 20260505122706 | 62 | 57 | 0.0 | 0.0 | 0.00 | 0.01 | 0.01 | 97 | 1059.7 |
| 20260505122205 | 62 | 57 | 0.0 | 0.0 | 0.00 | 0.01 | 0.01 | 97 | 1059.5 |
| 20260505121705 | 62 | 57 | 0.0 | 0.0 | 0.00 | 0.01 | 0.01 | 97 | 1059.2 |
| 20260505121205 | 61 | 57 | 0.0 | 0.0 | 0.00 | 0.01 | 0.01 | 97 | 1058.7 |
| 20260505120705 | 61 | 57 | 0.0 | 0.0 | 0.00 | 0.01 | 0.01 | 97 | 1058.3 |
| 20260505120205 | 60 | 57 | 0.0 | 0.9 | 0.00 | 0.01 | 0.01 | 96 | 1057.9 |
| 20260505115706 | 60 | 45 | 0.0 | 1.7 | 0.00 | 0.01 | 0.01 | 96 | 1057.7 |
| 20260505115205 | 60 | 63 | 0.9 | 1.7 | 0.00 | 0.01 | 0.01 | 96 | 1057.5 |
| 20260505114706 | 60 | 72 | 0.0 | 0.0 | 0.00 | 0.01 | 0.01 | 96 | 1057.3 |
| 20260505114204 | 60 | 55 | 0.0 | 1.7 | 0.00 | 0.01 | 0.01 | 96 | 1056.9 |
| 20260505113205 | 59 | 159 | 0.0 | 0.0 | 0.00 | 0.01 | 0.01 | 96 | 1055.7 |
| 20260505111705 | 59 | 75 | 0.0 | 0.0 | 0.00 | 0.01 | 0.01 | 96 | 1054.9 |
| 20260505111205 | 59 | 75 | 0.0 | 0.0 | 0.00 | 0.01 | 0.01 | 95 | 1054.7 |
| 20260505101204 | 59 | 75 | 0.0 | 0.0 | 0.00 | 0.01 | 0.01 | 94 | 1052.3 |
| 20260505100705 | 59 | 75 | 0.0 | 1.7 | 0.00 | 0.01 | 0.01 | 94 | 1052.1 |
| 20260505100205 | 59 | 75 | 0.0 | 0.0 | 0.00 | 0.01 | 0.01 | 94 | 1052.1 |
| 20260505095704 | 59 | 75 | 0.0 | 0.0 | 0.00 | 0.01 | 0.01 | 94 | 1052.0 |
| 20260505095204 | 60 | 75 | 0.0 | 0.0 | 0.00 | 0.01 | 0.01 | 94 | 1052.0 |
| 20260505094705 | 60 | 75 | 0.0 | 0.9 | 0.00 | 0.01 | 0.01 | 94 | 1051.7 |
| 20260505094205 | 60 | 74 | 0.0 | 0.0 | 0.00 | 0.01 | 0.01 | 94 | 1051.3 |
| 20260505093705 | 60 | 74 | 0.0 | 0.0 | 0.00 | 0.01 | 0.01 | 94 | 1051.3 |
| 20260505093205 | 60 | 74 | 0.0 | 0.0 | 0.00 | 0.01 | 0.01 | 94 | 1050.9 |
| 20260505092706 | 60 | 74 | 0.0 | 0.0 | 0.00 | 0.01 | 0.01 | 94 | 1051.1 |
| 20260505092204 | 60 | 74 | 0.0 | 0.0 | 0.00 | 0.01 | 0.01 | 94 | 1051.0 |
| 20260505091705 | 60 | 98 | 0.0 | 0.9 | 0.00 | 0.01 | 0.01 | 94 | 1050.5 |
| 20260505091204 | 59 | 71 | 0.0 | 0.0 | 0.00 | 0.01 | 0.01 | 94 | 1049.4 |
| 20260505090705 | 59 | 71 | 0.0 | 0.0 | 0.00 | 0.01 | 0.01 | 94 | 1048.6 |
| 20260505090205 | 59 | 71 | 0.0 | 0.0 | 0.00 | 0.01 | 0.01 | 93 | 1047.8 |
| 20260505085205 | 59 | 71 | 0.0 | 0.0 | 0.00 | 0.01 | 0.01 | 93 | 1046.6 |
| 20260505084705 | 59 | 71 | 0.0 | 0.0 | 0.00 | 0.01 | 0.01 | 93 | 1045.9 |
| 20260505084205 | 60 | 71 | 0.0 | 0.0 | 0.00 | 0.01 | 0.01 | 92 | 1045.4 |
| 20260505083705 | 60 | 71 | 0.0 | 0.0 | 0.00 | 0.01 | 0.01 | 92 | 1045.0 |
| 20260505083205 | 60 | 71 | 0.0 | 0.0 | 0.00 | 0.01 | 0.01 | 92 | 1044.5 |
| 20260505082705 | 60 | 71 | 0.0 | 0.0 | 0.00 | 0.01 | 0.01 | 92 | 1043.8 |
| 20260505082205 | 60 | 71 | 0.0 | 0.0 | 0.00 | 0.01 | 0.01 | 92 | 1043.6 |
| 20260505081705 | 60 | 71 | 0.0 | 0.0 | 0.00 | 0.01 | 0.01 | 92 | 1043.2 |
| 20260505081204 | 60 | 71 | 0.0 | 0.0 | 0.00 | 0.01 | 0.01 | 92 | 1043.1 |
| 20260505080205 | 60 | 70 | 0.0 | 0.0 | 0.00 | 0.01 | 0.01 | 92 | 1042.6 |
| 20260505075705 | 60 | 96 | 0.0 | 0.9 | 0.00 | 0.01 | 0.01 | 92 | 1041.8 |
| 20260505075205 | 60 | 18 | 0.0 | 0.9 | 0.00 | 0.01 | 0.01 | 92 | 1040.9 |
| 20260505074705 | 60 | 53 | 0.0 | 0.9 | 0.00 | 0.01 | 0.01 | 91 | 1039.9 |
| 20260505074205 | 60 | 220 | 0.0 | 0.0 | 0.00 | 0.01 | 0.01 | 91 | 1038.9 |
| 20260505073705 | 60 | 170 | 0.0 | 0.9 | 0.00 | 0.01 | 0.01 | 91 | 1038.4 |
| 20260505072705 | 60 | 170 | 0.0 | 0.9 | 0.00 | 0.01 | 0.01 | 90 | 1036.0 |
| 20260505071705 | 60 | 90 | 0.0 | 0.0 | 0.00 | 0.01 | 0.01 | 90 | 1033.3 |
| 20260505071205 | 60 | 90 | 0.0 | 0.9 | 0.00 | 0.01 | 0.01 | 89 | 1032.0 |
| 20260505070705 | 60 | 173 | 0.0 | 0.0 | 0.00 | 0.01 | 0.01 | 89 | 1031.2 |
| 20260505070205 | 60 | 173 | 0.0 | 0.9 | 0.00 | 0.01 | 0.01 | 89 | 1030.3 |
| 20260505064704 | 61 | 72 | 0.0 | 0.9 | 0.00 | 0.01 | 0.01 | 87 | 1025.3 |
| 20260505064204 | 61 | 71 | 0.0 | 0.0 | 0.00 | 0.01 | 0.01 | 87 | 1024.8 |
| 20260505063704 | 61 | 71 | 0.0 | 0.9 | 0.00 | 0.01 | 0.01 | 87 | 1024.4 |
| 20260505063205 | 62 | 88 | 0.0 | 0.9 | 0.00 | 0.01 | 0.01 | 87 | 1023.5 |
| 20260505062705 | 62 | 80 | 0.0 | 1.7 | 0.00 | 0.01 | 0.01 | 86 | 1021.8 |
| 20260505062204 | 62 | 66 | 0.0 | 0.9 | 0.00 | 0.01 | 0.01 | 86 | 1021.5 |
| 20260505061705 | 62 | 49 | 0.0 | 0.9 | 0.00 | 0.01 | 0.01 | 86 | 1021.0 |
| 20260505061205 | 62 | 37 | 0.0 | 0.0 | 0.00 | 0.01 | 0.01 | 86 | 1021.5 |
| 20260505060705 | 62 | 37 | 0.0 | 0.0 | 0.00 | 0.01 | 0.01 | 86 | 1020.9 |
| 20260505060204 | 62 | 37 | 0.0 | 0.9 | 0.00 | 0.01 | 0.01 | 85 | 1020.0 |
| 20260505055704 | 62 | 38 | 0.0 | 0.9 | 0.00 | 0.01 | 0.01 | 84 | 1019.1 |
| 20260505055205 | 62 | 49 | 0.0 | 0.0 | 0.00 | 0.01 | 0.01 | 84 | 1018.4 |
| 20260505054705 | 62 | 53 | 0.0 | 0.9 | 0.00 | 0.01 | 0.01 | 83 | 1018.1 |
| 20260505054204 | 63 | 139 | 0.0 | 0.0 | 0.00 | 0.01 | 0.01 | 83 | 1018.1 |
| 20260505053704 | 63 | 139 | 0.0 | 0.0 | 0.00 | 0.01 | 0.01 | 82 | 1017.6 |
| 20260505053205 | 63 | 139 | 0.0 | 0.0 | 0.00 | 0.01 | 0.01 | 82 | 1017.6 |
| 20260505052704 | 63 | 139 | 0.0 | 0.0 | 0.00 | 0.02 | 0.01 | 82 | 1017.4 |
| 20260505051705 | 64 | 139 | 0.0 | 0.0 | 0.00 | 0.02 | 0.01 | 81 | 1017.2 |
| 20260505051205 | 64 | 139 | 0.0 | 0.0 | 0.00 | 0.02 | 0.01 | 80 | 1017.2 |
| 20260505050705 | 64 | 139 | 0.0 | 0.0 | 0.00 | 0.02 | 0.01 | 80 | 1017.2 |
| 20260505050205 | 64 | 139 | 0.0 | 0.0 | 0.00 | 0.02 | 0.01 | 79 | 1016.9 |
| 20260505041704 | 66 | 118 | 0.0 | 0.0 | 0.00 | 0.01 | 0.01 | 75 | 1015.6 |
| 20260505040704 | 66 | 118 | 0.0 | 2.6 | 0.00 | 0.01 | 0.01 | 74 | 1015.1 |
| 20260505040205 | 66 | 122 | 0.0 | 1.7 | 0.00 | 0.01 | 0.01 | 73 | 1015.2 |
| 20260505035704 | 67 | 270 | 0.0 | 0.0 | 0.00 | 0.01 | 0.01 | 73 | 1015.1 |
| 20260505035205 | 67 | 116 | 0.0 | 2.6 | 0.00 | 0.01 | 0.01 | 72 | 1014.9 |
| 20260505034205 | 67 | 70 | 0.0 | 1.7 | 0.00 | 0.01 | 0.01 | 72 | 1014.5 |
| 20260505033704 | 67 | 118 | 0.0 | 1.7 | 0.00 | 0.01 | 0.01 | 72 | 1014.7 |
| 20260505033204 | 67 | 101 | 0.0 | 0.9 | 0.00 | 0.01 | 0.01 | 71 | 1014.6 |
| 20260505032704 | 67 | 102 | 0.0 | 1.7 | 0.00 | 0.01 | 0.01 | 70 | 1014.4 |
| 20260505032205 | 67 | 144 | 0.0 | 4.3 | 0.00 | 0.01 | 0.01 | 70 | 1014.4 |
| 20260505031705 | 67 | 103 | 0.0 | 4.3 | 0.00 | 0.01 | 0.01 | 70 | 1014.3 |
| 20260505031204 | 67 | 105 | 0.0 | 0.9 | 0.00 | 0.01 | 0.01 | 69 | 1014.3 |
| 20260505030704 | 67 | 181 | 0.0 | 0.9 | 0.00 | 0.01 | 0.01 | 69 | 1014.1 |
| 20260505030205 | 67 | 112 | 0.0 | 0.9 | 0.00 | 0.01 | 0.01 | 69 | 1014.1 |
| 20260505025705 | 67 | 110 | 0.0 | 1.7 | 0.00 | 0.01 | 0.01 | 69 | 1013.9 |
| 20260505025204 | 67 | 105 | 0.0 | 0.0 | 0.00 | 0.01 | 0.01 | 68 | 1013.9 |
| 20260505024704 | 67 | 105 | 0.0 | 0.9 | 0.00 | 0.01 | 0.01 | 68 | 1013.7 |
| 20260505024205 | 67 | 104 | 0.0 | 1.7 | 0.00 | 0.01 | 0.01 | 68 | 1013.7 |
| 20260505023705 | 67 | 192 | 0.0 | 2.6 | 0.00 | 0.01 | 0.01 | 68 | 1013.7 |
| 20260505023205 | 67 | 214 | 0.0 | 1.7 | 0.00 | 0.01 | 0.01 | 67 | 1013.5 |
| 20260505022704 | 67 | 308 | 0.0 | 0.9 | 0.00 | 0.01 | 0.01 | 67 | 1013.5 |
| 20260505022206 | 67 | 107 | 0.0 | 1.7 | 0.00 | 0.01 | 0.01 | 67 | 1013.3 |
| 20260505021704 | 67 | 108 | 0.0 | 1.7 | 0.00 | 0.01 | 0.01 | 69 | 1013.8 |
| 20260505021205 | 67 | 277 | 0.0 | 0.0 | 0.00 | 0.01 | 0.01 | 68 | 1013.5 |
| 20260505020704 | 67 | 277 | 0.0 | 0.0 | 0.00 | 0.01 | 0.01 | 67 | 1013.4 |
| 20260505020204 | 68 | 277 | 0.9 | 2.6 | 0.00 | 0.01 | 0.01 | 66 | 1013.1 |
| 20260505015705 | 68 | 216 | 0.0 | 0.9 | 0.00 | 0.01 | 0.01 | 65 | 1012.9 |
| 20260505015205 | 68 | 0 | 0.0 | 0.0 | 0.00 | 0.01 | 0.01 | 65 | 1012.7 |
| 20260505014704 | 68 | 0 | 0.0 | 0.0 | 0.00 | 0.01 | 0.01 | 64 | 1012.6 |
| 20260505013705 | 69 | 0 | 0.0 | 0.9 | 0.00 | 0.01 | 0.01 | 62 | 1012.4 |
| 20260505010705 | 72 | 131 | 0.0 | 0.9 | 0.00 | 0.01 | 0.01 | 58 | 1011.7 |
| 20260505010204 | 72 | 292 | 0.0 | 0.9 | 0.00 | 0.01 | 0.01 | 57 | 1011.9 |
| 20260505005705 | 73 | 255 | 0.0 | 0.9 | 0.00 | 0.01 | 0.01 | 56 | 1011.9 |
| 20260505005204 | 73 | 281 | 0.0 | 2.6 | 0.00 | 0.01 | 0.01 | 54 | 1011.7 |
| 20260505004205 | 74 | 273 | 0.0 | 1.7 | 0.00 | 0.01 | 0.01 | 52 | 1011.7 |
| 20260505003705 | 74 | 267 | 0.0 | 2.6 | 0.00 | 0.01 | 0.01 | 52 | 1011.7 |
| 20260505003205 | 75 | 57 | 0.0 | 0.0 | 0.00 | 0.01 | 0.01 | 52 | 1011.7 |
| 20260505002705 | 75 | 106 | 0.0 | 1.7 | 0.00 | 0.01 | 0.01 | 51 | 1011.9 |
| 20260505002204 | 76 | 273 | 0.9 | 1.7 | 0.00 | 0.01 | 0.01 | 51 | 1012.1 |
| 20260505001705 | 76 | 272 | 0.9 | 4.3 | 0.00 | 0.01 | 0.01 | 49 | 1012.0 |
| 20260505001204 | 77 | 283 | 0.0 | 2.6 | 0.00 | 0.01 | 0.01 | 49 | 1012.0 |
| 20260505000704 | 77 | 283 | 0.0 | 1.7 | 0.00 | 0.01 | 0.01 | 49 | 1012.1 |
| 20260504235704 | 77 | 270 | 0.0 | 2.6 | 0.00 | 0.01 | 0.01 | 48 | 1012.3 |
| 20260504235205 | 77 | 258 | 0.9 | 4.3 | 0.00 | 0.01 | 0.01 | 48 | 1012.4 |
| 20260504234704 | 78 | 243 | 0.9 | 4.3 | 0.00 | 0.01 | 0.01 | 47 | 1012.4 |
| 20260504234204 | 78 | 271 | 1.7 | 5.2 | 0.00 | 0.01 | 0.01 | 47 | 1012.2 |
| 20260504233205 | 79 | 124 | 0.0 | 1.7 | 0.00 | 0.01 | 0.01 | 45 | 1012.2 |
| 20260504232205 | 80 | 257 | 1.7 | 6.1 | 0.00 | 0.01 | 0.01 | 43 | 1012.4 |
| 20260504231704 | 80 | 104 | 0.9 | 6.1 | 0.00 | 0.01 | 0.01 | 43 | 1012.4 |
| 20260504231204 | 80 | 99 | 0.9 | 5.2 | 0.00 | 0.01 | 0.01 | 43 | 1012.4 |
| 20260504230205 | 82 | 267 | 2.6 | 7.0 | 0.00 | 0.01 | 0.01 | 41 | 1012.5 |
| 20260504225704 | 82 | 273 | 0.9 | 5.2 | 0.00 | 0.01 | 0.01 | 41 | 1012.5 |
| 20260504224705 | 81 | 282 | 1.7 | 7.0 | 0.00 | 0.01 | 0.01 | 43 | 1012.6 |
| 20260504224204 | 82 | 250 | 1.7 | 4.3 | 0.00 | 0.01 | 0.01 | 42 | 1012.7 |
| 20260504223704 | 82 | 255 | 0.9 | 4.3 | 0.00 | 0.01 | 0.01 | 42 | 1012.7 |
| 20260504222704 | 82 | 280 | 0.9 | 5.2 | 0.00 | 0.01 | 0.01 | 43 | 1012.8 |
| 20260504222204 | 82 | 101 | 0.9 | 2.6 | 0.00 | 0.01 | 0.01 | 42 | 1012.8 |
| 20260504221704 | 82 | 203 | 2.6 | 7.0 | 0.00 | 0.01 | 0.01 | 43 | 1012.8 |
| 20260504221204 | 83 | 256 | 1.7 | 5.2 | 0.00 | 0.01 | 0.01 | 44 | 1012.9 |
| 20260504220704 | 83 | 288 | 0.0 | 4.3 | 0.00 | 0.01 | 0.01 | 42 | 1012.9 |
| 20260504215704 | 82 | 290 | 0.9 | 2.6 | 0.00 | 0.01 | 0.01 | 44 | 1013.1 |
| 20260504215205 | 81 | 245 | 0.9 | 5.2 | 0.00 | 0.01 | 0.01 | 44 | 1013.0 |
| 20260504214705 | 81 | 135 | 1.7 | 7.0 | 0.00 | 0.01 | 0.01 | 46 | 1013.1 |
| 20260504214204 | 81 | 276 | 2.6 | 7.0 | 0.00 | 0.01 | 0.01 | 45 | 1013.2 |
| 20260504213704 | 82 | 137 | 1.7 | 5.2 | 0.00 | 0.01 | 0.01 | 46 | 1013.1 |
| 20260504212704 | 82 | 249 | 0.9 | 7.8 | 0.00 | 0.01 | 0.01 | 45 | 1013.1 |
| 20260504212205 | 82 | 243 | 0.9 | 2.6 | 0.00 | 0.01 | 0.01 | 42 | 1013.1 |
| 20260504211204 | 83 | 132 | 0.9 | 2.6 | 0.00 | 0.01 | 0.01 | 42 | 1013.2 |
| 20260504210704 | 82 | 100 | 0.9 | 7.0 | 0.00 | 0.01 | 0.01 | 44 | 1013.4 |
| 20260504210204 | 82 | 247 | 0.9 | 6.1 | 0.00 | 0.01 | 0.01 | 43 | 1013.4 |
| 20260504205704 | 82 | 109 | 0.9 | 2.6 | 0.00 | 0.01 | 0.01 | 43 | 1013.5 |
| 20260504205205 | 82 | 291 | 2.6 | 7.0 | 0.00 | 0.01 | 0.01 | 42 | 1013.7 |
| 20260504204704 | 82 | 152 | 1.7 | 4.3 | 0.00 | 0.01 | 0.01 | 44 | 1013.9 |
| 20260504203704 | 82 | 231 | 2.6 | 8.7 | 0.00 | 0.01 | 0.01 | 44 | 1013.9 |
| 20260504203204 | 82 | 110 | 0.9 | 6.1 | 0.00 | 0.01 | 0.01 | 44 | 1013.9 |
| 20260504202704 | 82 | 132 | 1.7 | 4.3 | 0.00 | 0.01 | 0.01 | 43 | 1014.0 |
| 20260504202204 | 81 | 270 | 1.7 | 6.1 | 0.00 | 0.01 | 0.01 | 45 | 1014.2 |
| 20260504201704 | 81 | 323 | 2.6 | 7.8 | 0.00 | 0.01 | 0.01 | 46 | 1014.3 |
| 20260504201204 | 80 | 268 | 1.7 | 7.8 | 0.00 | 0.01 | 0.01 | 48 | 1014.2 |
| 20260504195705 | 81 | 301 | 1.7 | 7.0 | 0.00 | 0.01 | 0.01 | 46 | 1014.3 |
| 20260504194204 | 81 | 268 | 0.9 | 6.1 | 0.00 | 0.01 | 0.01 | 42 | 1014.7 |
| 20260504193704 | 81 | 270 | 3.5 | 8.7 | 0.00 | 0.01 | 0.01 | 44 | 1014.8 |
| 20260504193204 | 82 | 200 | 1.7 | 11.3 | 0.00 | 0.01 | 0.01 | 45 | 1014.9 |
| 20260504192704 | 82 | 143 | 1.7 | 6.1 | 0.00 | 0.01 | 0.01 | 44 | 1015.0 |
| 20260504192204 | 82 | 200 | 2.6 | 5.2 | 0.00 | 0.01 | 0.01 | 42 | 1015.0 |
| 20260504191204 | 81 | 86 | 1.7 | 6.1 | 0.00 | 0.01 | 0.01 | 44 | 1015.2 |
| 20260504190705 | 81 | 118 | 1.7 | 4.3 | 0.00 | 0.01 | 0.01 | 43 | 1015.2 |
| 20260504190204 | 80 | 143 | 1.7 | 7.0 | 0.00 | 0.01 | 0.01 | 43 | 1015.3 |
| 20260504185704 | 80 | 255 | 2.6 | 7.0 | 0.00 | 0.01 | 0.01 | 45 | 1015.3 |
| 20260504185204 | 80 | 129 | 1.7 | 6.1 | 0.00 | 0.01 | 0.01 | 48 | 1015.3 |
| 20260504184704 | 81 | 267 | 1.7 | 7.0 | 0.00 | 0.01 | 0.01 | 45 | 1015.2 |
| 20260504184204 | 81 | 268 | 0.9 | 6.1 | 0.00 | 0.01 | 0.01 | 45 | 1015.2 |
| 20260504183704 | 80 | 20 | 1.7 | 5.2 | 0.00 | 0.01 | 0.01 | 44 | 1015.4 |
| 20260504183204 | 80 | 116 | 0.9 | 4.3 | 0.00 | 0.01 | 0.01 | 47 | 1015.6 |
| 20260504182705 | 81 | 274 | 2.6 | 8.7 | 0.00 | 0.01 | 0.01 | 43 | 1015.5 |
| 20260504182205 | 81 | 270 | 0.9 | 4.3 | 0.00 | 0.01 | 0.01 | 42 | 1015.6 |
| 20260504181705 | 81 | 126 | 1.7 | 7.0 | 0.00 | 0.01 | 0.01 | 46 | 1015.7 |
| 20260504181206 | 81 | 71 | 1.7 | 5.2 | 0.00 | 0.01 | 0.01 | 42 | 1015.8 |
| 20260504180705 | 80 | 250 | 0.9 | 6.1 | 0.00 | 0.01 | 0.01 | 47 | 1015.9 |
| 20260504180205 | 81 | 278 | 0.9 | 6.1 | 0.00 | 0.01 | 0.01 | 45 | 1016.0 |
| 20260504175705 | 81 | 41 | 0.9 | 4.3 | 0.00 | 0.01 | 0.01 | 45 | 1016.0 |
| 20260504175207 | 81 | 230 | 0.9 | 5.2 | 0.00 | 0.01 | 0.01 | 45 | 1016.0 |
| 20260504174706 | 81 | 109 | 0.9 | 5.2 | 0.00 | 0.01 | 0.01 | 42 | 1016.1 |
| 20260504174205 | 80 | 146 | 1.7 | 6.1 | 0.00 | 0.01 | 0.01 | 42 | 1016.1 |
| 20260504173705 | 80 | 261 | 0.0 | 4.3 | 0.00 | 0.01 | 0.01 | 44 | 1016.2 |
| 20260504171705 | 79 | 185 | 0.9 | 6.1 | 0.00 | 0.01 | 0.01 | 45 | 1016.4 |
| 20260504171205 | 79 | 126 | 1.7 | 7.0 | 0.00 | 0.01 | 0.01 | 44 | 1016.4 |
| 20260504170705 | 79 | 153 | 1.7 | 7.0 | 0.00 | 0.01 | 0.01 | 50 | 1016.5 |
| 20260504170204 | 79 | 152 | 1.7 | 5.2 | 0.00 | 0.01 | 0.01 | 44 | 1016.3 |
| 20260504160205 | 78 | 135 | 0.9 | 5.2 | 0.00 | 0.01 | 0.01 | 43 | 1016.8 |
| 20260504150705 | 75 | 239 | 0.9 | 7.0 | 0.00 | 0.01 | 0.01 | 55 | 1017.2 |
| 20260504150205 | 75 | 187 | 0.9 | 5.2 | 0.00 | 0.01 | 0.01 | 58 | 1017.3 |
| 20260504141205 | 71 | 266 | 1.7 | 4.3 | 0.00 | 0.01 | 0.01 | 65 | 1017.7 |
| 20260504140705 | 71 | 179 | 0.0 | 2.6 | 0.00 | 0.01 | 0.01 | 68 | 1018.2 |
| 20260504140206 | 71 | 270 | 1.7 | 4.3 | 0.00 | 0.01 | 0.01 | 66 | 1017.4 |